Date String (YYYY-MM-DD hh:mm:ss) UTC,Instrument flags,absolute air pressure of the measurement (hPa),sample flow rate (lpm),inlet stack bypass flow (lpm),air temperature of the measurement (°C),ambient temperature measured by the external sensor (°C),aerosol sample conditioner tube jacket temperature (°C),OPC LED temperature (°C),internal box temperature (°C),relative humidity of the measurement (%),span deviation,mass concentration of particles derived from Lorenz-Mie calculation of OPC scattering (μg/m³),mass concentration of particles derived from Lorenz-Mie calculation of OPC scattering (μg/m³),mass concentration of particles derived from Lorenz-Mie calculation of OPC scattering (μg/m³)
DateTimeUTC,F1_M11,P_M11,Q1_M11,Q2_M11,T1_M11,T2_M11,T3_M11,T4_M11,T5_M11,U1_M11,ZSPAN_M11,X2_M11,X0_M11,X1_M11
2023-06-27 18:00:00,SystemResetWarning,0825.4,5.00,000.00,030.5,025.2,000.0,038.8,031.0,34.1,0004.0,0011.03,0023.73,0008.96
2023-06-27 18:01:00,SystemResetWarning,0825.4,5.00,000.00,030.4,025.7,000.0,038.8,030.9,32.1,0004.0,0011.11,0024.51,0009.01
2023-06-27 18:02:00,SystemResetWarning,0825.4,5.00,000.00,030.4,026.1,000.0,038.7,031.0,31.6,0004.0,0011.14,0024.52,0009.04
2023-06-27 18:03:00,SystemResetWarning,0825.3,5.00,000.00,030.3,026.6,000.0,038.7,031.0,32.1,0004.2,0011.12,0025.42,0009.05
2023-06-27 18:04:00,SystemResetWarning,0825.3,5.00,000.00,030.3,027.0,000.0,038.7,031.1,32.5,0004.1,0011.15,0024.82,0009.08
2023-06-27 18:05:00,SystemResetWarning,0825.2,5.00,000.00,030.3,027.3,000.0,038.7,031.2,33.9,0004.2,0011.13,0024.42,0009.09
2023-06-27 18:06:00,SystemResetWarning,0825.2,4.99,000.00,030.3,027.3,000.0,038.7,031.3,35.0,0004.3,0011.06,0024.13,0009.09
2023-06-27 18:07:00,SystemResetWarning,0825.2,5.01,000.00,030.4,025.9,000.0,038.6,031.2,34.4,0004.4,0011.05,0024.18,0009.07
2023-06-27 18:08:00,SystemResetWarning,0825.2,4.99,000.00,030.4,025.0,000.0,038.6,031.2,34.5,0004.4,0011.11,0024.25,0009.09
2023-06-27 18:09:00,SystemResetWarning,0825.1,4.99,000.00,030.4,025.0,000.0,038.5,031.1,34.5,0004.6,0011.13,0024.20,0009.08
2023-06-27 18:10:00,SystemResetWarning,0825.1,5.04,000.00,030.4,025.4,000.0,038.5,030.9,34.7,0004.4,0011.11,0024.97,0009.07
2023-06-27 18:11:00,SystemResetWarning,0825.2,4.96,000.00,030.4,025.9,000.0,038.5,030.9,33.7,0004.3,0011.08,0025.55,0009.07
2023-06-27 18:12:00,SystemResetWarning,0825.2,5.01,000.00,030.5,026.3,000.0,038.6,031.0,33.0,0004.6,0011.06,0025.27,0009.05
2023-06-27 18:13:00,SystemResetWarning,0825.2,5.02,000.00,030.5,026.7,000.0,038.6,031.1,32.8,0004.3,0011.15,0027.18,0009.06
2023-06-27 18:14:00,SystemResetWarning,0825.2,4.98,000.00,030.5,027.1,000.0,038.6,031.2,33.5,0003.8,0011.22,0027.81,0009.08
2023-06-27 18:15:00,SystemResetWarning,0825.2,5.00,000.00,030.5,027.4,000.0,038.6,031.2,33.5,0003.7,0011.23,0029.55,0009.07
2023-06-27 18:16:00,SystemResetWarning,0825.2,5.00,000.00,030.6,026.8,000.0,038.6,031.3,33.8,0003.7,0011.22,0030.84,0009.07
2023-06-27 18:17:00,SystemResetWarning,0825.2,5.00,000.00,030.6,025.3,000.0,038.6,031.2,33.8,0003.8,0011.22,0031.67,0009.08
2023-06-27 18:18:00,SystemResetWarning,0825.2,5.01,000.00,030.6,024.9,000.0,038.6,031.3,32.4,0003.7,0011.22,0032.48,0009.08
2023-06-27 18:19:00,SystemResetWarning,0825.2,4.99,000.00,030.5,025.1,000.0,038.5,031.0,32.3,0003.3,0011.19,0034.05,0009.07
2023-06-27 18:20:00,SystemResetWarning,0825.2,5.00,000.00,030.4,025.5,000.0,038.6,030.9,33.2,0003.2,0011.20,0035.12,0009.07
2023-06-27 18:21:00,SystemResetWarning,0825.2,5.00,000.00,030.4,026.0,000.0,038.6,030.9,33.8,0003.2,0011.22,0036.62,0009.06
2023-06-27 18:22:00,SystemResetWarning,0825.1,5.00,000.00,030.3,026.4,000.0,038.6,031.0,34.0,0003.3,0011.29,0035.97,0009.07
2023-06-27 18:23:00,SystemResetWarning,0825.1,5.02,000.00,030.4,026.9,000.0,038.6,031.1,34.8,0002.8,0011.38,0036.44,0009.09
2023-06-27 18:24:00,SystemResetWarning,0825.2,4.99,000.00,030.5,027.2,000.0,038.6,031.2,33.6,0002.3,0011.35,0035.88,0009.12
2023-06-27 18:25:00,SystemResetWarning,0825.2,4.99,000.00,030.6,027.4,000.0,038.6,031.3,30.1,0002.7,0011.32,0035.81,0009.13
2023-06-27 18:26:00,SystemResetWarning,0825.2,5.00,000.00,030.7,026.2,000.0,038.6,031.3,29.7,0002.6,0011.30,0035.09,0009.14
2023-06-27 18:27:00,SystemResetWarning,0825.2,5.00,000.00,030.7,024.9,000.0,038.5,031.3,31.7,0002.4,0011.34,0033.73,0009.15
2023-06-27 18:28:00,SystemResetWarning,0825.1,5.00,000.00,030.7,024.9,000.0,038.5,031.2,32.0,0002.4,0011.37,0032.03,0009.17
2023-06-27 18:29:00,SystemResetWarning,0825.1,5.01,000.00,030.6,025.2,000.0,038.6,030.9,32.5,0002.1,0011.42,0032.28,0009.19
2023-06-27 18:30:00,SystemResetWarning,0825.1,5.00,000.00,030.5,025.7,000.0,038.6,030.9,33.4,0002.4,0011.46,0033.41,0009.21
2023-06-27 18:31:00,SystemResetWarning,0825.1,5.00,000.00,030.4,026.2,000.0,038.6,030.9,33.2,0002.4,0011.49,0032.41,0009.23
2023-06-27 18:32:00,SystemResetWarning,0825.1,5.00,000.00,030.4,026.6,000.0,038.6,031.0,33.3,0002.9,0011.42,0030.29,0009.25
2023-06-27 18:33:00,SystemResetWarning,0825.1,5.00,000.00,030.4,027.0,000.0,038.6,031.1,32.2,0003.2,0011.40,0029.70,0009.27
2023-06-27 18:34:00,SystemResetWarning,0825.1,5.00,000.00,030.4,027.3,000.0,038.6,031.2,31.4,0003.1,0011.32,0029.26,0009.28
2023-06-27 18:35:00,SystemResetWarning,0825.1,5.00,000.00,030.4,027.5,000.0,038.6,031.2,32.6,0003.3,0011.25,0029.29,0009.30
2023-06-27 18:36:00,SystemResetWarning,0825.1,4.98,000.00,030.5,026.5,000.0,038.6,031.3,31.7,0003.7,0011.28,0028.46,0009.33
2023-06-27 18:37:00,SystemResetWarning,0825.0,5.01,000.00,030.4,025.1,000.0,038.5,031.2,32.5,0004.0,0011.30,0027.64,0009.35
2023-06-27 18:38:00,SystemResetWarning,0825.0,5.00,000.00,030.4,024.9,000.0,038.5,031.2,33.9,0004.4,0011.36,0027.66,0009.37
2023-06-27 18:39:00,SystemResetWarning,0825.0,5.02,000.00,030.3,025.2,000.0,038.5,030.9,33.2,0004.3,0011.39,0028.63,0009.39
2023-06-27 18:40:00,SystemResetWarning,0825.1,4.98,000.00,030.2,025.6,000.0,038.5,030.8,32.4,0004.2,0011.40,0028.92,0009.41
2023-06-27 18:41:00,SystemResetWarning,0825.2,4.99,000.00,030.2,026.1,000.0,038.5,030.9,34.3,0004.3,0011.37,0027.16,0009.43
2023-06-27 18:42:00,SystemResetWarning,0825.2,5.02,000.00,030.2,026.5,000.0,038.5,031.0,33.7,0004.4,0011.37,0026.22,0009.47
2023-06-27 18:43:00,SystemResetWarning,0825.2,4.99,000.00,030.3,026.9,000.0,038.5,031.1,33.1,0004.4,0011.43,0027.50,0009.51
2023-06-27 18:44:00,SystemResetWarning,0825.1,4.98,000.00,030.3,027.3,000.0,038.5,031.2,33.7,0004.2,0011.49,0027.39,0009.55
2023-06-27 18:45:00,SystemResetWarning,0825.1,5.02,000.00,030.3,027.2,000.0,038.5,031.3,31.6,0004.4,0011.49,0027.62,0009.58
2023-06-27 18:46:00,SystemResetWarning,0825.1,4.98,000.00,030.4,025.6,000.0,038.5,031.2,29.8,0004.7,0011.59,0028.61,0009.61
2023-06-27 18:47:00,SystemResetWarning,0825.1,5.02,000.00,030.4,024.8,000.0,038.4,031.2,31.7,0004.4,0011.61,0028.74,0009.61
2023-06-27 18:48:00,SystemResetWarning,0825.1,5.00,000.00,030.3,024.9,000.0,038.4,031.0,29.6,0004.2,0011.61,0029.11,0009.62
2023-06-27 18:49:00,SystemResetWarning,0825.2,5.00,000.00,030.2,025.3,000.0,038.4,030.7,29.8,0003.9,0011.57,0029.63,0009.64
2023-06-27 18:50:00,SystemResetWarning,0825.2,5.00,000.00,030.1,025.8,000.0,038.4,030.8,30.3,0003.8,0011.53,0029.52,0009.66
2023-06-27 18:51:00,SystemResetWarning,0825.2,5.00,000.00,030.1,026.2,000.0,038.4,030.9,30.8,0004.0,0011.50,0029.62,0009.67
2023-06-27 18:52:00,SystemResetWarning,0825.1,4.99,000.00,030.1,026.7,000.0,038.4,031.0,30.3,0004.0,0011.48,0029.01,0009.68
2023-06-27 18:53:00,SystemResetWarning,0825.1,5.00,000.00,030.1,027.0,000.0,038.4,031.0,31.3,0003.9,0011.52,0029.83,0009.71
2023-06-27 18:54:00,SystemResetWarning,0825.0,5.01,000.00,030.1,027.4,000.0,038.4,031.1,30.3,0004.1,0011.53,0029.75,0009.72
2023-06-27 18:55:00,SystemResetWarning,0825.0,4.98,000.00,030.1,026.6,000.0,038.4,031.2,28.2,0004.0,0011.56,0029.52,0009.74
2023-06-27 18:56:00,SystemResetWarning,0825.0,5.01,000.00,030.1,025.1,000.0,038.3,031.1,28.8,0003.7,0011.63,0029.80,0009.75
2023-06-27 18:57:00,SystemResetWarning,0825.0,5.01,000.00,030.1,024.8,000.0,038.3,031.1,28.9,0003.6,0011.66,0030.99,0009.77
2023-06-27 18:58:00,SystemResetWarning,0825.0,5.00,000.00,030.0,025.0,000.0,038.2,030.8,28.1,0003.4,0011.67,0032.14,0009.79
2023-06-27 18:59:00,SystemResetWarning,0825.1,5.00,000.00,029.9,025.5,000.0,038.2,030.7,30.7,0003.2,0011.68,0032.85,0009.83
